Weather History for Indiana, PA

Change the Weather History Date:

Tuesday, February 26, 2013

  Actual Average Record
Temperature  
Mean Temperature 35 °F -  
Max Temperature 37 °F 41 °F 68 °F (1951)
Min Temperature 33 °F 21 °F -23 °F (1963)
Degree Days  
Heating Degree Days 30    
Moisture  
Dew Point 29 °F    
Average Humidity 81    
Maximum Humidity 100    
Minimum Humidity 60    
Precipitation  
Precipitation 0.59 in - - ()
Sea Level Pressure  
Sea Level Pressure 29.88 in    
Wind  
Wind Speed 11 mph (SE)    
Max Wind Speed 22 mph    
Max Gust Speed 36 mph    
Visibility 9 miles    
Events      
Averages and records for this station are not official NWS values.
T = Trace of Precipitation, MM = Missing Value Source: NWS Daily Summary

Daily Weather History Graph

Daily Weather History Graph

Search for Another Location

Airport:

Trip Planner

Search our weather history database for the weather conditions in past years. The results will help you decide how hot, cold, wet, or windy it might be!

Date:

Astronomy

Feb. 26, 2013 Rise Set
Actual Time 6:54 AM EST 6:04 PM EST
Civil Twilight 6:26 AM EST 6:32 PM EST
Nautical Twilight 5:55 AM EST 7:03 PM EST
Astronomical Twilight 5:23 AM EST 7:35 PM EST
Moon 7:20 PM EST (2/26) 6:55 AM EST (2/26)
Length of Visible Light 12h 05m
Length of Day
11h 10m
Full, 99% of the Moon is Illuminated
Feb 26
Full
Mar 4
Last Quarter
Mar 11
New
Mar 19
First Quarter
Mar 27
Full

Hourly Weather History & Observations

Time (EST) Temp. Windchill Dew Point Humidity Pressure Visibility Wind Dir Wind Speed Gust Speed Precip Events Conditions
12:15 AM 33.8 °F 28.6 °F 23.0 °F 65% 30.09 in 10.0 mi ESE 5.8 mph - N/A   Unknown
12:35 AM 33.8 °F 29.6 °F 23.0 °F 65% 30.08 in 10.0 mi ESE 4.6 mph - N/A   Unknown
12:55 AM 33.8 °F 28.6 °F 23.0 °F 65% 30.07 in 10.0 mi ESE 5.8 mph - N/A   Unknown
1:15 AM 33.8 °F 27.7 °F 23.0 °F 65% 30.08 in 10.0 mi ESE 6.9 mph - N/A   Unknown
1:35 AM 33.8 °F 27.0 °F 24.8 °F 70% 30.07 in 10.0 mi ESE 8.1 mph - N/A   Unknown
1:55 AM 33.8 °F 26.4 °F 24.8 °F 70% 30.07 in 10.0 mi ESE 9.2 mph - N/A   Unknown
2:15 AM 33.8 °F 26.4 °F 24.8 °F 70% 30.08 in 10.0 mi SE 9.2 mph - N/A   Unknown
2:35 AM 33.8 °F 24.8 °F 24.8 °F 70% 30.06 in 10.0 mi SE 12.7 mph 16.1 mph N/A   Unknown
2:55 AM 33.8 °F 24.3 °F 24.8 °F 70% 30.06 in 10.0 mi SE 13.8 mph 19.6 mph N/A   Unknown
3:15 AM 33.8 °F 25.8 °F 24.8 °F 70% 30.05 in 10.0 mi SE 10.4 mph 16.1 mph N/A   Unknown
3:35 AM 33.8 °F 28.6 °F 24.8 °F 70% 30.04 in 10.0 mi ESE 5.8 mph 18.4 mph N/A   Unknown
3:55 AM 33.8 °F 28.6 °F 24.8 °F 70% 30.03 in 10.0 mi ESE 5.8 mph - N/A   Unknown
4:15 AM 33.8 °F 26.4 °F 24.8 °F 70% 30.02 in 10.0 mi SE 9.2 mph 18.4 mph N/A   Unknown
4:35 AM 33.8 °F 25.8 °F 24.8 °F 70% 30.02 in 10.0 mi SE 10.4 mph 16.1 mph N/A   Unknown
4:55 AM 35.6 °F 26.6 °F 23.0 °F 60% 30.01 in 10.0 mi SE 13.8 mph 24.2 mph N/A   Unknown
5:15 AM 35.6 °F 29.2 °F 23.0 °F 60% 30.00 in 10.0 mi SE 8.1 mph 17.3 mph N/A   Unknown
5:35 AM 33.8 °F 23.9 °F 23.0 °F 65% 29.99 in 10.0 mi SE 15.0 mph 24.2 mph N/A   Unknown
5:55 AM 35.6 °F 28.0 °F 23.0 °F 60% 30.00 in 10.0 mi SE 10.4 mph 20.7 mph N/A   Unknown
6:15 AM 35.6 °F 27.5 °F 23.0 °F 60% 30.00 in 10.0 mi SE 11.5 mph 23.0 mph N/A   Unknown
6:35 AM 35.6 °F 29.9 °F 24.8 °F 65% 30.02 in 10.0 mi SE 6.9 mph 23.0 mph N/A   Unknown
6:55 AM 33.8 °F 23.5 °F 24.8 °F 70% 29.99 in 10.0 mi ESE 16.1 mph 20.7 mph N/A   Unknown
7:15 AM 33.8 °F 22.8 °F 24.8 °F 70% 29.99 in 10.0 mi SE 18.4 mph 25.3 mph N/A   Unknown
7:35 AM 35.6 °F 25.2 °F 24.8 °F 65% 29.98 in 10.0 mi SE 18.4 mph 25.3 mph N/A   Unknown
7:55 AM 35.6 °F 25.9 °F 24.8 °F 65% 29.99 in 10.0 mi ESE 16.1 mph 26.5 mph N/A   Unknown
8:15 AM 35.6 °F 27.1 °F 24.8 °F 65% 30.00 in 10.0 mi SE 12.7 mph 19.6 mph N/A   Unknown
8:35 AM 35.6 °F 27.5 °F 24.8 °F 65% 30.00 in 10.0 mi SE 11.5 mph 21.9 mph N/A   Unknown
8:55 AM 35.6 °F 26.2 °F 24.8 °F 65% 29.99 in 10.0 mi SSE 15.0 mph 24.2 mph N/A   Unknown
9:15 AM 35.6 °F 24.2 °F 26.6 °F 70% 29.98 in 10.0 mi SE 21.9 mph 28.8 mph N/A   Unknown
9:35 AM 35.6 °F 25.5 °F 26.6 °F 70% 29.98 in 10.0 mi SE 17.3 mph 27.6 mph N/A   Unknown
9:55 AM 35.6 °F 24.8 °F 26.6 °F 70% 29.98 in 10.0 mi SE 19.6 mph 25.3 mph N/A   Unknown
10:15 AM 35.6 °F 25.5 °F 26.6 °F 70% 29.97 in 10.0 mi SE 17.3 mph 23.0 mph N/A   Unknown
10:35 AM 35.6 °F 26.2 °F 26.6 °F 70% 29.97 in 10.0 mi SE 15.0 mph 32.2 mph N/A   Unknown
10:55 AM 37.4 °F 30.3 °F 26.6 °F 65% 29.98 in 10.0 mi SSE 10.4 mph 25.3 mph N/A   Unknown
11:15 AM 37.4 °F 29.3 °F 26.6 °F 65% 29.97 in 10.0 mi SE 12.7 mph 27.6 mph N/A   Unknown
11:35 AM 37.4 °F 28.9 °F 26.6 °F 65% 29.96 in 10.0 mi SE 13.8 mph 28.8 mph N/A   Unknown
11:55 AM 37.4 °F 27.8 °F 26.6 °F 65% 29.95 in 10.0 mi SE 17.3 mph 35.7 mph N/A   Unknown
12:15 PM 35.6 °F 26.2 °F 26.6 °F 70% 29.94 in 10.0 mi ESE 15.0 mph 27.6 mph N/A   Unknown
12:35 PM 35.6 °F 25.9 °F 28.4 °F 75% 29.93 in 7.0 mi SE 16.1 mph 25.3 mph N/A   Unknown
12:55 PM 35.6 °F 26.2 °F 28.4 °F 75% 29.92 in 10.0 mi SE 15.0 mph 23.0 mph N/A   Unknown
1:15 PM 35.6 °F 25.9 °F 28.4 °F 75% 29.91 in 10.0 mi SE 16.1 mph 26.5 mph N/A   Unknown
1:35 PM 33.8 °F 25.8 °F 30.2 °F 87% 29.90 in 7.0 mi ESE 10.4 mph 16.1 mph 0.01 in   Unknown
1:55 PM 33.8 °F 24.8 °F 30.2 °F 87% 29.87 in 10.0 mi ESE 12.7 mph 23.0 mph 0.01 in   Unknown
2:15 PM 33.8 °F 26.4 °F 30.2 °F 87% 29.85 in 7.0 mi ESE 9.2 mph 19.6 mph 0.02 in   Unknown
2:35 PM 33.8 °F 26.4 °F 32.0 °F 93% 29.83 in 7.0 mi ESE 9.2 mph - 0.04 in   Unknown
2:55 PM 33.8 °F 26.4 °F 33.8 °F 100% 29.83 in 10.0 mi ESE 9.2 mph - 0.05 in   Unknown
3:15 PM 33.8 °F 28.6 °F 33.8 °F 100% 29.82 in 2.5 mi East 5.8 mph 17.3 mph 0.04 in   Unknown
3:35 PM 33.8 °F 24.3 °F 33.8 °F 100% 29.80 in 3.0 mi ESE 13.8 mph 19.6 mph 0.11 in   Unknown
3:55 PM 33.8 °F 27.7 °F 33.8 °F 100% 29.79 in 1.8 mi East 6.9 mph - 0.19 in   Unknown
4:15 PM 33.8 °F 25.3 °F 33.8 °F 100% 29.76 in 4.0 mi East 11.5 mph 21.9 mph 0.04 in   Unknown
4:35 PM 33.8 °F 22.8 °F 33.8 °F 100% 29.74 in 5.0 mi ESE 18.4 mph 25.3 mph 0.06 in   Unknown
4:55 PM 35.6 °F 25.9 °F 35.6 °F 100% 29.71 in 10.0 mi ESE 16.1 mph 28.8 mph 0.07 in   Unknown
5:15 PM 35.6 °F 27.1 °F 35.6 °F 100% 29.70 in 10.0 mi ESE 12.7 mph 29.9 mph N/A   Unknown
5:35 PM 35.6 °F 26.2 °F 35.6 °F 100% 29.68 in 10.0 mi ESE 15.0 mph 25.3 mph 0.01 in   Unknown
5:55 PM 35.6 °F 27.5 °F 35.6 °F 100% 29.69 in 10.0 mi ESE 11.5 mph 21.9 mph 0.02 in   Unknown
6:15 PM 35.6 °F 27.5 °F 35.6 °F 100% 29.68 in 10.0 mi ESE 11.5 mph 24.2 mph N/A   Unknown
6:35 PM 35.6 °F 26.2 °F 35.6 °F 100% 29.65 in 10.0 mi ESE 15.0 mph 21.9 mph N/A   Unknown
6:55 PM 35.6 °F 25.5 °F 35.6 °F 100% 29.68 in 10.0 mi ESE 17.3 mph 27.6 mph N/A   Unknown
7:15 PM 35.6 °F 27.5 °F 35.6 °F 100% 29.67 in 7.0 mi East 11.5 mph - 0.07 in   Unknown
7:35 PM 35.6 °F 28.6 °F 35.6 °F 100% 29.72 in 3.0 mi East 9.2 mph - 0.14 in   Unknown
7:55 PM 35.6 °F 28.6 °F 35.6 °F 100% 29.74 in 5.0 mi SE 9.2 mph - 0.20 in   Unknown
8:15 PM 33.8 °F 27.0 °F 33.8 °F 100% 29.71 in 5.0 mi ESE 8.1 mph - 0.04 in   Unknown
8:35 PM 33.8 °F 22.8 °F 33.8 °F 100% 29.69 in 10.0 mi ESE 18.4 mph 25.3 mph 0.05 in   Unknown
8:55 PM 35.6 °F 26.2 °F 35.6 °F 100% 29.68 in 10.0 mi ESE 15.0 mph 21.9 mph 0.05 in   Unknown
9:15 PM 35.6 °F 24.8 °F 35.6 °F 100% 29.66 in 10.0 mi ESE 19.6 mph 27.6 mph N/A   Unknown
9:35 PM 35.6 °F 26.2 °F 35.6 °F 100% 29.67 in 10.0 mi SE 15.0 mph 21.9 mph N/A   Unknown
9:55 PM 35.6 °F 25.5 °F 35.6 °F 100% 29.65 in 10.0 mi SE 17.3 mph 26.5 mph N/A   Unknown
10:15 PM 35.6 °F 25.5 °F 35.6 °F 100% 29.64 in 10.0 mi SE 17.3 mph 26.5 mph N/A   Unknown
10:35 PM 35.6 °F 27.5 °F 35.6 °F 100% 29.63 in 10.0 mi SE 11.5 mph 21.9 mph N/A   Unknown
10:55 PM 35.6 °F 26.2 °F 35.6 °F 100% 29.63 in 10.0 mi ESE 15.0 mph 25.3 mph N/A   Unknown
11:15 PM 35.6 °F 27.1 °F 35.6 °F 100% 29.62 in 10.0 mi ESE 12.7 mph 19.6 mph N/A   Unknown
11:55 PM 35.6 °F 30.7 °F 33.8 °F 93% 29.61 in 10.0 mi ESE 5.8 mph 19.6 mph N/A   Unknown